Precipitable_Water
0.56 0.57 0.56 0.57 0.57 0.57 0.53 0.48 0.47 0.48 0.49 0.52 0.52 0.51 0.52 0.55 0.57 0.57 0.56 0.55 0.55 0.55 0.54 0.54 0.54 0.54 0.54 0.55 0.55 0.55 0.61 0.68 0.70 0.74 0.75 0.78 0.79 0.81 0.80 0.84 0.92 1.04
0.53 0.55 0.58 0.59 0.58 0.57 0.54 0.52 0.52 0.51 0.51 0.54 0.56 0.55 0.56 0.57 0.58 0.55 0.53 0.53 0.53 0.52 0.53 0.52 0.53 0.54 0.53 0.53 0.53 0.54 0.56 0.64 0.64 0.68 0.67 0.68 0.73 0.76 0.76 0.78 0.80 0.87
0.52 0.53 0.54 0.57 0.59 0.55 0.54 0.53 0.54 0.53 0.51 0.51 0.56 0.55 0.54 0.56 0.56 0.54 0.52 0.52 0.51 0.51 0.52 0.53 0.54 0.54 0.53 0.52 0.53 0.55 0.60 0.61 0.57 0.58 0.59 0.61 0.67 0.71 0.74 0.76 0.76 0.77
0.53 0.53 0.52 0.53 0.54 0.54 0.56 0.56 0.53 0.53 0.53 0.52 0.52 0.52 0.53 0.54 0.54 0.52 0.51 0.51 0.52 0.52 0.53 0.53 0.52 0.52 0.52 0.52 0.54 0.57 0.60 0.59 0.57 0.57 0.55 0.56 0.60 0.67 0.69 0.72 0.73 0.73
0.52 0.51 0.52 0.54 0.55 0.56 0.56 0.56 0.55 0.55 0.55 0.53 0.54 0.53 0.52 0.52 0.52 0.51 0.51 0.50 0.50 0.51 0.51 0.52 0.52 0.51 0.51 0.51 0.57 0.58 0.59 0.58 0.57 0.56 0.54 0.52 0.57 0.62 0.65 0.69 0.70 0.70
0.54 0.54 0.54 0.54 0.57 0.56 0.54 0.53 0.55 0.55 0.56 0.54 0.53 0.54 0.52 0.52 0.52 0.52 0.52 0.51 0.50 0.51 0.51 0.52 0.52 0.53 0.53 0.55 0.60 0.60 0.59 0.58 0.57 0.56 0.53 0.51 0.54 0.61 0.65 0.67 0.68 0.70
0.53 0.53 0.52 0.54 0.55 0.55 0.54 0.53 0.52 0.52 0.52 0.52 0.52 0.50 0.52 0.52 0.53 0.53 0.53 0.53 0.52 0.51 0.51 0.51 0.52 0.52 0.55 0.60 0.60 0.59 0.59 0.59 0.59 0.56 0.52 0.52 0.54 0.56 0.63 0.66 0.66 0.68
0.54 0.54 0.53 0.52 0.51 0.53 0.52 0.52 0.52 0.52 0.53 0.52 0.51 0.53 0.54 0.53 0.53 0.54 0.54 0.54 0.54 0.54 0.54 0.54 0.52 0.52 0.57 0.61 0.58 0.56 0.55 0.58 0.58 0.56 0.53 0.52 0.54 0.54 0.58 0.64 0.65 0.65
0.53 0.51 0.51 0.51 0.51 0.51 0.50 0.50 0.51 0.52 0.53 0.52 0.52 0.51 0.53 0.53 0.53 0.53 0.54 0.54 0.54 0.54 0.53 0.51 0.50 0.52 0.57 0.60 0.58 0.57 0.56 0.57 0.60 0.59 0.56 0.53 0.52 0.52 0.54 0.58 0.59 0.61
0.50 0.50 0.49 0.50 0.49 0.50 0.49 0.49 0.50 0.50 0.52 0.51 0.50 0.50 0.50 0.51 0.51 0.50 0.50 0.50 0.49 0.49 0.48 0.47 0.48 0.50 0.52 0.57 0.58 0.58 0.57 0.58 0.61 0.62 0.59 0.56 0.54 0.53 0.53 0.54 0.55 0.56
0.49 0.48 0.47 0.47 0.47 0.47 0.47 0.47 0.47 0.47 0.48 0.47 0.47 0.46 0.47 0.49 0.49 0.49 0.48 0.47 0.47 0.47 0.47 0.47 0.48 0.49 0.51 0.53 0.57 0.59 0.58 0.59 0.61 0.62 0.61 0.59 0.57 0.56 0.55 0.54 0.53 0.54
0.47 0.47 0.46 0.46 0.46 0.45 0.45 0.44 0.44 0.45 0.45 0.45 0.45 0.45 0.45 0.47 0.47 0.47 0.47 0.45 0.45 0.46 0.47 0.48 0.49 0.51 0.52 0.53 0.56 0.60 0.59 0.59 0.60 0.62 0.63 0.63 0.61 0.60 0.57 0.55 0.53 0.53
0.46 0.45 0.45 0.45 0.43 0.43 0.42 0.42 0.41 0.42 0.41 0.41 0.43 0.43 0.43 0.43 0.44 0.44 0.44 0.44 0.44 0.46 0.47 0.48 0.50 0.50 0.50 0.51 0.55 0.59 0.61 0.60 0.58 0.59 0.61 0.63 0.64 0.63 0.61 0.58 0.56 0.56
0.44 0.44 0.43 0.42 0.42 0.41 0.41 0.40 0.40 0.40 0.40 0.41 0.41 0.41 0.41 0.42 0.41 0.42 0.42 0.42 0.44 0.47 0.48 0.50 0.50 0.50 0.51 0.52 0.54 0.57 0.58 0.58 0.58 0.58 0.59 0.60 0.61 0.62 0.62 0.59 0.57 0.57
0.42 0.42 0.42 0.41 0.41 0.40 0.39 0.39 0.39 0.39 0.40 0.39 0.40 0.39 0.39 0.39 0.40 0.41 0.40 0.42 0.45 0.47 0.47 0.48 0.49 0.50 0.53 0.54 0.53 0.54 0.57 0.57 0.59 0.59 0.59 0.58 0.57 0.58 0.59 0.60 0.58 0.57
0.41 0.41 0.41 0.40 0.39 0.38 0.39 0.40 0.41 0.41 0.41 0.40 0.39 0.39 0.39 0.39 0.40 0.41 0.42 0.43 0.43 0.44 0.44 0.45 0.47 0.51 0.56 0.56 0.56 0.57 0.59 0.60 0.61 0.61 0.60 0.58 0.56 0.56 0.56 0.59 0.60 0.60
0.41 0.40 0.39 0.38 0.38 0.39 0.40 0.41 0.41 0.41 0.41 0.41 0.40 0.39 0.39 0.40 0.40 0.38 0.40 0.42 0.43 0.42 0.43 0.45 0.48 0.52 0.56 0.57 0.57 0.59 0.60 0.60 0.58 0.57 0.57 0.56 0.56 0.56 0.56 0.57 0.59 0.61
0.41 0.40 0.38 0.38 0.39 0.40 0.41 0.43 0.43 0.41 0.40 0.41 0.41 0.40 0.40 0.41 0.40 0.39 0.38 0.39 0.40 0.41 0.43 0.45 0.47 0.52 0.56 0.56 0.57 0.59 0.60 0.59 0.57 0.55 0.54 0.55 0.55 0.55 0.56 0.56 0.56 0.58
0.42 0.42 0.40 0.39 0.39 0.41 0.43 0.44 0.44 0.44 0.42 0.41 0.41 0.42 0.43 0.40 0.39 0.40 0.40 0.40 0.39 0.38 0.41 0.45 0.47 0.52 0.54 0.54 0.55 0.57 0.59 0.58 0.56 0.54 0.52 0.52 0.53 0.54 0.55 0.55 0.54 0.54
0.43 0.44 0.43 0.41 0.42 0.42 0.43 0.44 0.44 0.44 0.45 0.45 0.45 0.46 0.44 0.42 0.41 0.41 0.41 0.41 0.41 0.41 0.43 0.45 0.45 0.49 0.52 0.52 0.53 0.54 0.54 0.55 0.54 0.53 0.52 0.51 0.52 0.53 0.54 0.54 0.54 0.54
0.44 0.44 0.43 0.42 0.43 0.43 0.44 0.44 0.44 0.45 0.46 0.47 0.47 0.47 0.46 0.44 0.42 0.42 0.42 0.44 0.44 0.45 0.45 0.44 0.45 0.49 0.51 0.51 0.51 0.50 0.50 0.49 0.50 0.51 0.50 0.49 0.49 0.51 0.52 0.53 0.53 0.55
0.44 0.44 0.43 0.42 0.42 0.43 0.43 0.43 0.45 0.46 0.46 0.48 0.49 0.49 0.49 0.48 0.47 0.45 0.45 0.45 0.45 0.46 0.46 0.45 0.47 0.51 0.52 0.51 0.50 0.50 0.48 0.47 0.46 0.46 0.45 0.45 0.45 0.46 0.49 0.51 0.52 0.54
0.45 0.44 0.42 0.41 0.42 0.42 0.42 0.43 0.44 0.45 0.47 0.49 0.48 0.48 0.47 0.47 0.46 0.44 0.45 0.44 0.43 0.44 0.44 0.43 0.45 0.51 0.53 0.54 0.54 0.55 0.54 0.52 0.49 0.47 0.45 0.43 0.42 0.43 0.46 0.48 0.49 0.52
0.46 0.44 0.42 0.42 0.42 0.42 0.42 0.43 0.45 0.46 0.47 0.49 0.47 0.47 0.47 0.48 0.48 0.46 0.45 0.44 0.42 0.43 0.45 0.42 0.43 0.46 0.49 0.52 0.55 0.57 0.56 0.54 0.52 0.48 0.45 0.43 0.43 0.42 0.44 0.46 0.48 0.51
0.46 0.45 0.44 0.43 0.43 0.43 0.44 0.44 0.45 0.46 0.48 0.50 0.49 0.49 0.49 0.50 0.49 0.47 0.45 0.45 0.45 0.45 0.45 0.43 0.42 0.44 0.47 0.50 0.52 0.54 0.54 0.53 0.50 0.47 0.44 0.42 0.41 0.39 0.40 0.43 0.46 0.48
0.47 0.46 0.46 0.45 0.45 0.45 0.46 0.47 0.48 0.49 0.49 0.49 0.49 0.49 0.48 0.48 0.48 0.47 0.45 0.44 0.46 0.46 0.44 0.42 0.40 0.41 0.44 0.48 0.50 0.53 0.53 0.50 0.48 0.43 0.40 0.40 0.40 0.39 0.39 0.39 0.42 0.45
Wind_Speed
20 20 19 19 19 20 21 21 20 20 21 20 20 21 21 21 21 21 20 20 20 20 20 20 20 20 21 21 21 20 20 20 21 21 22 23 24 26 28 29 30 31
21 21 20 20 20 21 21 21 21 21 21 21 21 21 22 22 22 22 22 22 22 21 22 22 21 21 21 21 21 21 21 21 21 22 22 23 24 25 27 29 30 31
22 21 21 21 21 22 22 22 22 22 22 22 22 22 23 23 23 23 23 23 23 23 23 22 22 22 22 22 22 22 21 21 22 23 23 23 23 24 25 27 29 31
22 21 21 21 21 22 22 22 23 22 22 22 23 23 23 23 24 24 24 24 23 23 23 23 23 23 23 23 23 23 22 22 23 23 24 24 24 24 25 26 28 30
22 21 21 21 22 22 23 23 23 23 23 23 23 23 23 24 24 24 24 24 23 23 24 24 24 24 24 24 24 23 23 23 24 24 24 25 25 24 25 25 26 28
23 23 22 23 23 23 23 23 23 23 23 23 24 24 24 24 24 24 24 24 25 25 25 25 25 25 25 24 24 24 24 24 24 25 25 25 25 25 25 25 25 26
23 23 23 23 23 23 23 23 23 23 24 24 24 24 24 24 24 25 25 25 26 26 26 26 26 26 26 25 25 26 26 26 26 26 26 26 25 25 25 25 25 26
23 23 23 23 23 23 23 23 24 24 24 24 24 24 24 24 24 25 26 26 26 26 27 27 27 27 26 26 26 27 27 27 27 27 27 26 26 26 26 26 26 26
23 23 24 24 24 24 24 24 24 24 24 23 23 23 24 24 25 25 26 27 27 27 28 28 28 28 27 27 27 27 27 27 28 27 27 27 27 27 27 27 27 27
23 24 24 24 24 24 24 24 24 24 24 23 24 24 24 25 26 26 27 28 28 29 29 29 29 29 28 28 28 28 28 28 28 28 28 28 28 28 27 27 28 27
24 24 24 24 24 24 24 24 25 25 25 25 25 26 26 26 27 28 29 29 30 30 30 30 30 30 30 29 29 29 30 29 29 29 29 29 29 29 29 28 28 28
24 24 24 24 24 24 24 25 26 26 26 27 27 27 28 28 29 29 30 31 32 32 31 31 31 31 32 31 31 30 30 31 30 30 30 30 29 29 30 30 29 29
24 23 23 23 24 24 25 26 27 27 28 28 28 29 29 29 30 31 31 32 32 32 32 33 33 33 33 32 32 31 31 31 32 32 31 31 30 30 30 30 30 30
23 23 23 24 24 25 26 27 27 28 29 29 29 29 30 30 31 32 32 32 32 32 33 33 33 33 33 32 32 32 32 32 32 32 32 32 31 31 31 30 30 30
23 23 23 24 25 26 26 27 28 29 30 30 30 30 31 31 32 32 32 32 32 33 33 34 33 33 32 31 31 31 31 32 32 32 32 32 31 31 31 30 30 29
23 23 24 24 25 26 26 27 28 29 30 31 31 31 32 32 33 33 32 32 33 34 34 34 32 31 30 30 30 30 30 30 30 30 30 30 30 30 30 29 29 29
23 23 24 24 25 26 27 28 29 30 30 31 31 32 32 33 33 33 33 33 34 34 34 33 31 29 28 28 27 27 27 26 26 27 27 27 28 28 28 28 28 28
22 23 24 24 24 25 27 28 29 30 31 32 32 32 33 34 34 34 34 34 34 34 34 32 30 28 27 26 26 25 25 24 24 24 25 25 25 26 26 26 27 27
23 23 24 24 25 26 27 28 29 30 31 31 32 33 33 34 34 34 34 34 34 35 34 32 29 27 26 25 25 25 25 24 24 24 24 24 24 25 25 25 25 26
23 24 24 25 26 26 27 28 29 30 31 31 32 33 34 34 34 34 34 34 34 34 34 31 29 27 26 25 25 25 24 24 23 23 24 24 24 24 24 25 25 25
23 24 25 25 26 27 28 28 29 30 31 32 32 33 34 34 34 34 34 35 35 34 33 32 29 28 26 25 25 24 25 24 24 24 24 24 24 24 24 24 24 24
23 24 25 26 27 27 28 29 30 31 32 32 33 33 34 34 34 34 35 36 36 35 33 32 30 28 27 26 26 25 26 25 25 24 24 25 25 25 24 24 24 23
24 25 26 27 27 28 28 29 30 31 32 32 33 34 35 35 35 35 35 36 36 35 33 32 31 29 27 27 27 27 27 27 26 26 26 25 25 25 25 24 23 23
25 25 26 27 28 29 29 30 31 32 32 33 33 34 35 36 36 36 36 36 37 35 33 32 31 30 28 28 28 28 28 28 28 28 27 27 26 26 25 24 23 23
25 26 27 28 29 30 31 31 32 33 33 34 34 35 36 36 37 37 37 37 37 35 33 32 32 31 30 29 29 28 28 28 29 29 28 28 27 27 26 25 24 23
27 28 29 30 31 32 32 33 33 34 34 35 35 36 37 37 38 38 38 38 37 35 34 33 33 33 32 31 30 29 29 29 29 29 28 28 28 27 26 25 25 24
Wind_Direction
334 331 330 329 327 325 325 324 322 321 320 318 317 318 318 316 316 314 311 310 310 308 309 310 310 310 309 308 308 305 303 301 299 298 294 288 282 275 269 266 263 261
334 331 329 327 326 325 325 324 322 320 319 318 316 316 316 315 315 314 311 309 307 306 306 306 307 307 306 306 306 306 304 302 300 299 297 294 288 282 275 270 265 263
335 332 330 327 325 324 324 324 322 320 319 317 316 315 314 314 314 314 312 309 307 306 305 304 303 303 303 302 303 303 303 302 301 299 298 296 292 287 281 275 270 265
336 334 332 329 325 324 324 323 322 320 319 318 316 315 314 313 313 313 313 311 308 306 305 304 302 301 301 300 300 300 301 301 301 300 298 296 293 290 286 281 276 270
336 334 332 330 328 326 324 323 321 320 319 318 317 317 315 314 313 313 312 310 308 307 305 304 303 302 301 300 298 298 299 299 299 299 298 296 293 291 289 286 281 276
335 334 333 331 330 328 327 325 323 321 320 319 318 317 316 315 314 313 312 310 309 307 306 305 304 303 301 298 297 298 298 298 298 298 297 296 293 291 290 288 285 281
336 335 334 334 333 332 331 329 327 325 323 322 320 319 318 317 316 315 313 312 310 309 308 306 304 303 301 298 297 298 297 296 296 296 295 294 292 290 289 288 287 285
339 338 338 338 337 336 335 333 331 329 327 326 324 323 322 320 319 317 316 315 314 312 310 308 305 303 301 299 298 298 297 295 295 294 293 292 292 290 288 287 286 285
342 341 341 341 341 339 337 336 335 333 332 330 328 326 325 323 321 320 319 318 316 314 312 310 307 305 302 300 299 299 298 296 294 293 292 292 291 290 288 287 285 285
343 342 343 343 342 340 339 338 337 336 335 333 331 329 326 324 322 321 319 318 317 315 313 311 309 307 304 302 300 300 298 296 294 292 291 291 290 289 287 286 285 284
343 343 344 344 342 341 340 340 339 338 336 334 332 330 328 325 324 322 320 318 317 315 313 311 310 308 306 304 301 299 298 296 294 292 291 290 289 288 287 285 284 283
344 344 344 343 342 342 341 340 340 338 337 335 333 331 329 327 326 324 322 320 317 315 313 312 310 308 307 305 301 298 296 295 294 292 291 289 288 288 287 286 284 283
344 344 344 343 343 342 342 341 340 339 338 337 335 333 332 330 328 326 324 322 319 317 315 313 311 309 307 305 301 298 295 293 292 291 290 289 288 287 287 287 285 283
345 345 344 344 343 343 342 342 341 340 339 338 336 335 334 332 330 328 326 324 322 320 319 317 314 311 308 305 302 298 295 293 291 290 289 289 288 287 286 286 285 283
345 345 345 344 343 342 342 341 341 340 340 339 338 338 337 335 333 330 328 327 326 325 323 320 317 313 310 307 304 300 297 295 293 292 291 289 289 288 287 286 285 283
345 345 344 344 343 342 341 341 340 340 340 340 339 339 339 338 336 334 332 331 329 329 327 325 321 318 315 313 310 306 302 299 296 295 293 292 291 290 288 287 286 284
343 343 343 343 342 342 341 341 340 340 340 340 339 339 338 338 338 337 335 333 332 332 331 329 326 324 322 320 317 313 309 305 302 299 297 295 293 292 290 288 286 284
342 342 342 342 341 341 341 340 340 341 340 340 339 338 338 338 338 337 337 336 335 334 333 331 330 328 326 324 322 320 317 313 310 306 303 299 296 294 292 290 287 284
341 340 340 339 339 339 339 339 339 340 340 339 339 338 338 337 337 337 337 337 337 337 335 332 330 329 327 326 325 324 322 319 316 313 310 306 302 298 295 292 289 286
338 338 338 337 337 336 337 337 338 338 339 339 339 339 338 338 338 338 338 338 337 337 335 332 329 326 325 325 325 325 324 322 320 318 315 312 308 304 300 296 293 289
336 336 336 336 335 334 335 336 336 337 338 339 339 339 339 338 337 337 338 338 338 336 335 332 329 324 322 321 321 321 321 321 320 319 318 316 313 310 305 301 297 293
334 335 335 334 333 333 333 334 335 336 337 338 338 339 339 338 337 336 336 337 337 336 334 332 329 324 320 318 317 317 317 317 318 318 318 317 315 314 310 305 300 297
332 333 333 333 332 332 332 333 334 335 336 337 337 337 337 337 336 335 335 335 335 335 334 332 331 327 321 317 315 314 314 313 314 314 314 314 314 314 313 310 304 299
330 330 330 330 330 330 330 331 332 334 335 335 335 335 335 336 335 335 334 334 334 334 333 332 332 330 325 320 316 314 312 311 311 311 311 311 311 311 312 312 308 302
327 327 328 328 329 328 329 329 330 331 332 333 333 333 334 334 334 334 333 333 333 333 332 331 331 330 327 323 318 315 312 311 310 309 309 308 308 308 308 309 309 305
326 325 326 326 327 327 327 327 328 329 330 331 331 332 332 332 332 333 332 332 332 331 331 330 329 328 327 324 320 317 314 311 310 309 307 307 307 306 305 306 308 307